| time (UTC) | temp C | wind direction | speed KPH | gust KPH | rain 1hr cm | rain 24hr cm | rain mn cm | humidity % | barometer mb |
| 20260504044524 | 3 | 142 | 4.8 | 17.7 | 0.05 | 1.60 | 0.05 | 99 | 974.8 |
| 20260504043019 | 3 | 157 | 6.4 | 16.1 | 0.03 | 1.57 | 0.03 | 99 | 975.2 |
| 20260504041534 | 3 | 141 | 4.8 | 19.3 | 0.03 | 1.57 | 0.03 | 99 | 976.1 |
| 20260504040019 | 3 | 149 | 6.4 | 16.1 | 0.03 | 1.57 | 0.03 | 99 | 977.1 |
| 20260504034509 | 3 | 123 | 1.6 | 14.5 | 0.00 | 1.55 | 0.00 | 98 | 978.5 |
| 20260504033108 | 3 | 155 | 8.0 | 24.1 | 0.00 | 1.55 | 0.00 | 98 | 978.4 |
| 20260504031503 | 3 | 140 | 9.7 | 24.1 | 0.00 | 1.55 | 0.00 | 99 | 979.3 |
| 20260504030159 | 3 | 113 | 3.2 | 20.9 | 0.00 | 1.55 | 0.00 | 98 | 980.6 |
| 20260504024556 | 4 | 124 | 8.0 | 17.7 | 0.00 | 1.55 | 1.55 | 98 | 981.2 |
| 20260504023053 | 4 | 153 | 4.8 | 16.1 | 0.03 | 1.55 | 1.55 | 99 | 981.7 |
| 20260504021553 | 5 | 149 | 6.4 | 20.9 | 0.03 | 1.55 | 1.55 | 99 | 982.7 |
| 20260504020053 | 5 | 160 | 8.0 | 25.7 | 0.05 | 1.55 | 1.55 | 99 | 983.1 |
| 20260504014545 | 5 | 134 | 1.6 | 20.9 | 0.08 | 1.55 | 1.55 | 99 | 983.7 |
| 20260504013056 | 4 | 81 | 6.4 | 25.7 | 0.10 | 1.52 | 1.52 | 99 | 984.3 |
| 20260504011541 | 3 | 355 | 4.8 | 29.0 | 0.13 | 1.52 | 1.52 | 99 | 984.9 |
| 20260504010041 | 3 | 47 | 8.0 | 27.4 | 0.15 | 1.50 | 1.50 | 98 | 985.7 |
| 20260504004535 | 3 | 25 | 9.7 | 30.6 | 0.15 | 1.45 | 1.45 | 98 | 986.5 |
| 20260504003033 | 3 | 66 | 16.1 | 32.2 | 0.15 | 1.42 | 1.42 | 98 | 986.9 |
| 20260504001535 | 3 | 79 | 14.5 | 35.4 | 0.28 | 1.40 | 1.40 | 98 | 988.0 |
| 20260504000027 | 2 | 15 | 12.9 | 32.2 | 0.33 | 1.35 | 1.35 | 98 | 989.2 |
| 20260503234529 | 2 | 45 | 12.9 | 37.0 | 0.41 | 1.32 | 1.32 | 98 | 989.0 |
| 20260503233024 | 2 | 90 | 11.3 | 38.6 | 0.46 | 1.27 | 1.27 | 98 | 989.7 |
| 20260503231525 | 2 | 67 | 14.5 | 40.2 | 0.36 | 1.12 | 1.12 | 98 | 990.7 |
| 20260503230034 | 2 | 60 | 14.5 | 38.6 | 0.33 | 1.02 | 1.02 | 98 | 991.8 |
| 20260503224516 | 2 | 66 | 12.9 | 35.4 | 0.25 | 0.89 | 0.89 | 98 | 993.0 |
| 20260503223013 | 2 | 49 | 8.0 | 30.6 | 0.23 | 0.81 | 0.81 | 98 | 993.9 |
| 20260503221509 | 2 | 63 | 6.4 | 25.7 | 0.25 | 0.76 | 0.76 | 98 | 995.3 |
| 20260503220009 | 2 | 56 | 11.3 | 29.0 | 0.28 | 0.69 | 0.69 | 98 | 995.6 |
| 20260503214605 | 2 | 51 | 8.0 | 33.8 | 0.41 | 0.64 | 0.64 | 98 | 996.1 |
| 20260503213005 | 2 | 60 | 11.3 | 29.0 | 0.36 | 0.56 | 0.56 | 97 | 996.5 |
| 20260503211503 | 2 | 92 | 8.0 | 35.4 | 0.30 | 0.48 | 0.48 | 97 | 996.3 |
| 20260503210100 | 2 | 65 | 9.7 | 33.8 | 0.23 | 0.41 | 0.41 | 97 | 997.4 |
| 20260503204619 | 2 | 98 | 14.5 | 29.0 | 0.05 | 0.20 | 0.20 | 97 | 998.1 |
| 20260503203100 | 2 | 63 | 9.7 | 27.4 | 0.05 | 0.20 | 0.20 | 97 | 999.0 |
| 20260503201553 | 1 | 84 | 12.9 | 38.6 | 0.05 | 0.18 | 0.18 | 96 | 999.6 |
| 20260503200049 | 2 | 92 | 14.5 | 32.2 | 0.05 | 0.18 | 0.18 | 96 | 999.9 |
| 20260503194547 | 3 | 47 | 9.7 | 29.0 | 0.05 | 0.15 | 0.15 | 96 | 1000.6 |
| 20260503193046 | 3 | 35 | 6.4 | 19.3 | 0.13 | 0.15 | 0.15 | 95 | 1001.1 |
| 20260503191603 | 3 | 64 | 8.0 | 30.6 | 0.13 | 0.13 | 0.13 | 95 | 1002.4 |
| 20260503190041 | 3 | 62 | 4.8 | 24.1 | 0.13 | 0.13 | 0.13 | 94 | 1003.1 |
| 20260503184536 | 3 | 60 | 4.8 | 20.9 | 0.10 | 0.10 | 0.10 | 92 | 1004.3 |
| 20260503183030 | 4 | 87 | 8.0 | 20.9 | 0.03 | 0.03 | 0.03 | 90 | 1005.4 |
| 20260503181541 | 4 | 351 | 8.0 | 20.9 | 0.00 | 0.00 | 0.00 | 87 | 1006.3 |
| 20260503180028 | 5 | 35 | 4.8 | 25.7 | 0.00 | 0.00 | 0.00 | 87 | 1006.6 |
| 20260503174521 | 5 | 55 | 9.7 | 19.3 | 0.00 | 0.00 | 0.00 | 86 | 1007.5 |
| 20260503173019 | 5 | 72 | 8.0 | 20.9 | 0.00 | 0.00 | 0.00 | 85 | 1008.2 |
| 20260503171517 | 6 | 75 | 3.2 | 20.9 | 0.00 | 0.00 | 0.00 | 85 | 1008.9 |
| 20260503081556 | 1 | 278 | 0.0 | 0.0 | 0.00 | 0.03 | 0.00 | 98 | 1016.2 |
| 20260503080103 | 1 | 278 | 0.0 | 0.0 | 0.00 | 0.03 | 0.00 | 98 | 1016.4 |
| 20260503071605 | 1 | 278 | 0.0 | 1.6 | 0.00 | 0.03 | 0.00 | 98 | 1016.5 |